FENGYUN 1C DEB, 36204

Orbit data source: Space-Track

FENGYUN 1C DEB, 36204 is space debris in SSO originally from a launch on Mon, 10 May 1999 UTC launched from the Taiyaun Space Center, China (TSC). Fengyun 1C debris stems from the Chinese weather satellite Fengyun-1C, which was intentionally destroyed by a Chinese anti-satellite missile in 2007. This event dramatically increased the amount of space debris, with thousands of trackable fragments posing hazards to satellites and human spaceflight. The Fengyun 1C debris cloud has become a focal point in discussions about space sustainability and the need for international regulations to prevent the creation of new debris.

Loading next visibility...
Identifier
36204, 1999-025DUD
Orbit
SSO
Country
Flag of CNCN / PRC
Related business
Manufacturer
Unknown
Mission
Spacecraft
Bus & Motor
Unknown
Mass
Unknown
Launch date (UTC)
1999-05-10 (27 years ago)
Launch vehicle
Unknown
Launch site
Taiyaun Space Center, China (TSC)
Object type
Payload
Rocket body
Debris
Shape & HBR
Unknown shape, 0.1 m
Radar Cross Section
Small (<0.1 m²)

Expand to show TLE details & history
Last TLE update: 11 hours ago

TLE from 11 hours ago
0 FENGYUN 1C DEB
1 36204U 99025DUD 26146.08840379  .00002386  00000-0  84210-3 0  9995
2 36204  99.2944 260.6025 0018994  50.9945 309.2926 14.35675664967851
Epoch: 2026-05-26T02:07Z
TLE epoch observation values (Epoch: 2026-05-26T02:07:18.087Z)
Latitude
-0.00003°
Longitude
-14.88972°
Altitude
767.151 km
Speed
7.475 km/s
True Right ascension
17h 22m 24s
True Declination
0° 00' 00"
Sunlit
Object was in full shadow at epoch
Visualization orbit readout
Latitude
Unknown
Longitude
Unknown
Altitude
Unknown
Speed
Unknown
Apparent Right ascension
Unknown
Apparent Declination
Unknown
Sunlit
N/A
Visualization observer readout
Local Sidereal Time
22:23:58
Azimuth
Unknown
Elevation
Unknown
Doppler factor
Unknown
Orbital elements
Apogee altitude
783.566 km
Perigee altitude
756.412 km
Semi-major axis
7,148.126 km
Eccentricity
0.0019
Inclination
99.2944°
RAAN
260.6025°
Arg. of periapsis
50.9945°
True anomaly
309.1239°
Mean anomaly
309.2926°
Eccentric anomaly
309.20827°
Mean motion
3.59133 °/min
Orbital period
100.24 mins
BSTAR
0.0008421
Loading maneuver chart data...
Computing Atmospheric mass density...

Documentation

Showing up to 5 results
|